Weather History for Wausau, WI

Change the Weather History Date:

Tuesday, October 12, 2010

  Actual Average Record
Temperature  
Mean Temperature 60 °F 48 °F  
Max Temperature 75 °F 57 °F 82 °F (1995)
Min Temperature 44 °F 38 °F 22 °F (2006)
Degree Days  
Heating Degree Days 5 18  
Month to date heating degree days 126 187  
Since 1 July heating degree days 402 480  
Cooling Degree Days 0 0  
Month to date cooling degree days 0 0  
Year to date cooling degree days 560 405  
Growing Degree Days 8 (Base 50)    
Moisture  
Dew Point 48 °F    
Average Humidity 75    
Maximum Humidity 100    
Minimum Humidity 49    
Precipitation  
Precipitation 0.00 in 0.10 in 1.40 in (1898)
Month to date precipitation 0.13 1.31  
Year to date precipitation 32.13 27.42  
Snow  
Snow 0.00 in 0.00 in 3.00 in (1909)
Month to date snowfall 0.0 0.3  
Since 1 July snowfall 0.0 0.3  
Since 1 September snowfall 0.0 0.3  
Snow Depth 0.00 in    
Sea Level Pressure  
Sea Level Pressure 29.95 in    
Wind  
Wind Speed 7 mph (SE)    
Max Wind Speed 21 mph    
Max Gust Speed 31 mph    
Visibility 7 miles    
Events      
T = Trace of Precipitation, MM = Missing Value Source: NWS Daily Summary

Daily Weather History Graph

Daily Weather History Graph

Search for Another Location

Airport:

Trip Planner

Search our weather history database for the weather conditions in past years. The results will help you decide how hot, cold, wet, or windy it might be!

Date:

Astronomy

Oct. 12, 2010 Rise Set
Actual Time 7:10 AM CDT 6:18 PM CDT
Civil Twilight 6:40 AM CDT 6:48 PM CDT
Nautical Twilight 6:06 AM CDT 7:22 PM CDT
Astronomical Twilight 5:32 AM CDT 7:56 PM CDT
Moon 12:57 PM CDT (10/12) 9:41 PM CDT (10/12)
Length of Visible Light 12h 07m
Length of Day
11h 08m
Waxing Crescent, 29% of the Moon is Illuminated
Oct 12
Waxing Crescent
Oct 14
First Quarter
Oct 22
Full
Oct 30
Last Quarter
Nov 5
New

Hourly Weather History & Observations

Time (CDT) Temp. Windchill Dew Point Humidity Pressure Visibility Wind Dir Wind Speed Gust Speed Precip Events Conditions
1:54 AM 50.0 °F - 48.0 °F 93% 29.92 in 10.0 mi ESE 3.5 mph - N/A   Clear
2:54 AM 48.0 °F - 46.9 °F 96% 29.92 in 10.0 mi East 3.5 mph - N/A   Clear
3:54 AM 46.9 °F - 46.0 °F 97% 29.93 in 9.0 mi East 3.5 mph - N/A   Clear
4:54 AM 46.9 °F - 45.0 °F 93% 29.94 in 7.0 mi ESE 3.5 mph - N/A   Clear
5:54 AM 46.0 °F 43.9 °F 45.0 °F 96% 29.95 in 7.0 mi ESE 4.6 mph - N/A   Clear
6:54 AM 45.0 °F 43.5 °F 44.1 °F 97% 29.95 in 5.0 mi ESE 3.5 mph - N/A   Clear
7:41 AM 44.6 °F 43.1 °F 44.6 °F 100% 29.94 in 4.0 mi ESE 3.5 mph - N/A   Scattered Clouds
7:47 AM 44.6 °F 43.1 °F 44.6 °F 100% 29.94 in 1.8 mi ESE 3.5 mph - N/A   Mostly Cloudy
7:54 AM 45.0 °F 43.5 °F 45.0 °F 100% 29.96 in 1.2 mi SE 3.5 mph - N/A   Mostly Cloudy
8:10 AM 44.6 °F 42.2 °F 44.6 °F 100% 29.94 in 0.8 mi East 4.6 mph - N/A   Overcast
8:41 AM 46.4 °F 44.3 °F 44.6 °F 93% 29.94 in 1.0 mi ESE 4.6 mph - N/A   Mostly Cloudy
8:54 AM 46.0 °F 43.9 °F 46.0 °F 100% 29.97 in 1.2 mi ESE 4.6 mph - N/A   Mostly Cloudy
9:07 AM 46.4 °F 44.3 °F 46.4 °F 100% 29.94 in 2.0 mi SE 4.6 mph - N/A   Scattered Clouds
9:15 AM 46.4 °F 44.3 °F 46.4 °F 100% 29.94 in 4.0 mi ESE 4.6 mph - N/A   Scattered Clouds
9:54 AM 51.1 °F - 48.0 °F 89% 29.97 in 9.0 mi SSE 4.6 mph - N/A   Clear
10:54 AM 57.0 °F - 48.0 °F 72% 29.96 in 10.0 mi SE 4.6 mph - N/A   Clear
11:54 AM 62.1 °F - 48.9 °F 62% 29.96 in 10.0 mi South 3.5 mph - N/A   Clear
12:54 PM 66.9 °F - 52.0 °F 59% 29.94 in 10.0 mi South 5.8 mph - N/A   Clear
1:54 PM 70.0 °F - 52.0 °F 53% 29.92 in 10.0 mi South 5.8 mph - N/A   Clear
2:54 PM 73.0 °F - 53.1 °F 49% 29.91 in 10.0 mi SW 9.2 mph - N/A   Clear
3:54 PM 73.9 °F - 53.1 °F 48% 29.90 in 10.0 mi WSW 10.4 mph - N/A   Clear
4:54 PM 73.9 °F - 53.1 °F 48% 29.89 in 10.0 mi SW 10.4 mph - N/A   Clear
5:54 PM 71.1 °F - 54.0 °F 55% 29.89 in 10.0 mi SSW 5.8 mph - N/A   Partly Cloudy
6:54 PM 68.0 °F - 53.1 °F 59% 29.91 in 10.0 mi West 11.5 mph - N/A   Partly Cloudy
7:54 PM 64.9 °F - 52.0 °F 63% 29.96 in 10.0 mi NW 15.0 mph 23.0 mph N/A   Mostly Cloudy
8:54 PM 61.0 °F - 51.1 °F 70% 30.00 in 10.0 mi NW 15.0 mph - N/A   Overcast
9:03 PM 60.8 °F - 50.0 °F 68% 29.98 in 10.0 mi NNW 15.0 mph 25.3 mph N/A   Overcast
9:54 PM 57.9 °F - 48.0 °F 70% 30.02 in 10.0 mi NNW 10.4 mph - N/A   Partly Cloudy
10:54 PM 55.9 °F - 48.0 °F 75% 30.03 in 10.0 mi NW 6.9 mph - N/A   Clear
11:54 PM 55.0 °F - 48.0 °F 77% 30.03 in 10.0 mi NW 4.6 mph - N/A   Clear